Wetterdaten: Freitag, 19.06.2015
Datum Zeit Temp. A. Feuchte A. Luftdruck Regen Wind Richtung Richtung Sonnenschein ET UV Solar Taupunkt Windchill Windben Empfang
19.06.2015 00:00 14,3 C 96 % 1012,0 hPa 0,0 l/m 0,0 km/h (0 Bft) SO 136 0 min 0,000 mm 0,0 UV-I 0 W/m 13,7 C 14,3 C 0,0 km/h (0 Bft) 0,00 %
19.06.2015 00:05 14,3 C 96 % 1012,0 hPa 0,0 l/m 0,0 km/h (0 Bft) O-SO 122 0 min 0,000 mm 0,0 UV-I 0 W/m 13,7 C 14,3 C 0,0 km/h (0 Bft) 0,00 %
19.06.2015 00:10 14,3 C 96 % 1011,9 hPa 0,0 l/m 0,4 km/h (0 Bft) W-SW 255 0 min 0,000 mm 0,0 UV-I 0 W/m 13,7 C 14,3 C 4,0 km/h (1 Bft) 0,00 %
19.06.2015 00:15 14,3 C 96 % 1011,8 hPa 0,0 l/m 2,9 km/h (1 Bft) W-SW 255 0 min 0,000 mm 0,0 UV-I 0 W/m 13,7 C 14,3 C 4,0 km/h (1 Bft) 0,00 %
19.06.2015 00:20 14,3 C 96 % 1012,1 hPa 0,0 l/m 0,4 km/h (0 Bft) S 177 0 min 0,000 mm 0,0 UV-I 0 W/m 13,7 C 14,3 C 4,0 km/h (1 Bft) 0,00 %
19.06.2015 00:25 14,3 C 96 % 1011,8 hPa 0,0 l/m 0,0 km/h (0 Bft) W-SW 247 0 min 0,000 mm 0,0 UV-I 0 W/m 13,7 C 14,3 C 0,0 km/h (0 Bft) 0,00 %
19.06.2015 00:30 14,4 C 96 % 1011,8 hPa 0,0 l/m 2,9 km/h (1 Bft) W-SW 251 0 min 0,000 mm 0,0 UV-I 0 W/m 13,8 C 14,4 C 4,0 km/h (1 Bft) 0,00 %
19.06.2015 00:35 14,4 C 96 % 1011,9 hPa 0,0 l/m 4,7 km/h (1 Bft) W-SW 251 0 min 0,000 mm 0,0 UV-I 0 W/m 13,8 C 14,4 C 7,9 km/h (2 Bft) 0,00 %
19.06.2015 00:40 14,4 C 96 % 1011,8 hPa 0,0 l/m 0,0 km/h (0 Bft) S 186 0 min 0,000 mm 0,0 UV-I 0 W/m 13,8 C 14,4 C 0,0 km/h (0 Bft) 0,00 %
19.06.2015 00:45 14,4 C 96 % 1011,9 hPa 0,0 l/m 0,0 km/h (0 Bft) SO 129 0 min 0,000 mm 0,0 UV-I 0 W/m 13,8 C 14,4 C 0,0 km/h (0 Bft) 0,00 %
19.06.2015 00:50 14,4 C 97 % 1011,8 hPa 0,0 l/m 0,0 km/h (0 Bft) SO 139 0 min 0,000 mm 0,0 UV-I 0 W/m 13,9 C 14,4 C 0,0 km/h (0 Bft) 0,00 %
19.06.2015 00:55 14,4 C 97 % 1011,6 hPa 0,0 l/m 0,0 km/h (0 Bft) W-SW 256 0 min 0,000 mm 0,0 UV-I 0 W/m 13,9 C 14,4 C 0,0 km/h (0 Bft) 0,00 %
19.06.2015 01:00 14,3 C 96 % 1011,6 hPa 0,0 l/m 0,0 km/h (0 Bft) O-NO 60 0 min 0,000 mm 0,0 UV-I 0 W/m 13,7 C 14,3 C 0,0 km/h (0 Bft) 0,00 %
19.06.2015 01:05 14,3 C 96 % 1011,7 hPa 0,0 l/m 0,0 km/h (0 Bft) O-NO 75 0 min 0,000 mm 0,0 UV-I 0 W/m 13,7 C 14,3 C 0,0 km/h (0 Bft) 0,00 %
19.06.2015 01:10 14,3 C 96 % 1011,7 hPa 0,0 l/m 0,0 km/h (0 Bft) S 173 0 min 0,000 mm 0,0 UV-I 0 W/m 13,7 C 14,3 C 0,0 km/h (0 Bft) 0,00 %
19.06.2015 01:15 14,3 C 96 % 1011,6 hPa 0,0 l/m 0,0 km/h (0 Bft) SW 226 0 min 0,000 mm 0,0 UV-I 0 W/m 13,7 C 14,3 C 0,0 km/h (0 Bft) 0,00 %
19.06.2015 01:20 14,3 C 96 % 1011,6 hPa 0,0 l/m 0,0 km/h (0 Bft) SO 129 0 min 0,000 mm 0,0 UV-I 0 W/m 13,7 C 14,3 C 0,0 km/h (0 Bft) 0,00 %
19.06.2015 01:25 14,3 C 96 % 1011,6 hPa 0,0 l/m 0,0 km/h (0 Bft) O 90 0 min 0,000 mm 0,0 UV-I 0 W/m 13,7 C 14,3 C 0,0 km/h (0 Bft) 0,00 %
19.06.2015 01:30 14,3 C 97 % 1011,5 hPa 0,0 l/m 0,0 km/h (0 Bft) W-SW 256 0 min 0,000 mm 0,0 UV-I 0 W/m 13,8 C 14,3 C 0,0 km/h (0 Bft) 0,00 %
19.06.2015 01:35 14,3 C 97 % 1011,6 hPa 0,0 l/m 0,0 km/h (0 Bft) SO 125 0 min 0,000 mm 0,0 UV-I 0 W/m 13,8 C 14,3 C 0,0 km/h (0 Bft) 0,00 %
19.06.2015 01:40 14,3 C 97 % 1011,2 hPa 0,3 l/m 0,0 km/h (0 Bft) S-SO 162 0 min 0,000 mm 0,0 UV-I 0 W/m 13,8 C 14,3 C 0,0 km/h (0 Bft) 0,00 %
19.06.2015 01:45 14,3 C 97 % 1011,4 hPa 0,0 l/m 0,0 km/h (0 Bft) S 188 0 min 0,000 mm 0,0 UV-I 0 W/m 13,8 C 14,3 C 0,0 km/h (0 Bft) 0,00 %
19.06.2015 01:50 14,3 C 97 % 1011,3 hPa 0,3 l/m 0,4 km/h (0 Bft) N 355 0 min 0,000 mm 0,0 UV-I 0 W/m 13,8 C 14,3 C 4,0 km/h (1 Bft) 0,00 %
19.06.2015 01:55 14,3 C 97 % 1011,6 hPa 0,3 l/m 0,0 km/h (0 Bft) O-NO 72 0 min 0,000 mm 0,0 UV-I 0 W/m 13,8 C 14,3 C 0,0 km/h (0 Bft) 0,00 %
19.06.2015 02:00 14,3 C 97 % 1011,5 hPa 0,0 l/m 0,0 km/h (0 Bft) SO 140 0 min 0,000 mm 0,0 UV-I 0 W/m 13,8 C 14,3 C 0,0 km/h (0 Bft) 0,00 %
19.06.2015 02:05 14,3 C 97 % 1011,5 hPa 0,0 l/m 0,0 km/h (0 Bft) NO 54 0 min 0,000 mm 0,0 UV-I 0 W/m 13,8 C 14,3 C 0,0 km/h (0 Bft) 0,00 %
19.06.2015 02:10 14,3 C 97 % 1011,5 hPa 0,0 l/m 0,0 km/h (0 Bft) S-SW 194 0 min 0,000 mm 0,0 UV-I 0 W/m 13,8 C 14,3 C 0,0 km/h (0 Bft) 0,00 %
19.06.2015 02:15 14,3 C 97 % 1011,6 hPa 0,0 l/m 0,4 km/h (0 Bft) N 354 0 min 0,000 mm 0,0 UV-I 0 W/m 13,8 C 14,3 C 4,0 km/h (1 Bft) 0,00 %
19.06.2015 02:20 14,3 C 97 % 1011,4 hPa 0,0 l/m 0,0 km/h (0 Bft) O-SO 105 0 min 0,000 mm 0,0 UV-I 0 W/m 13,8 C 14,3 C 0,0 km/h (0 Bft) 0,00 %
19.06.2015 02:25 14,3 C 97 % 1011,2 hPa 0,0 l/m 0,4 km/h (0 Bft) O 92 0 min 0,000 mm 0,0 UV-I 0 W/m 13,8 C 14,3 C 4,0 km/h (1 Bft) 0,00 %
19.06.2015 02:30 14,3 C 97 % 1011,5 hPa 0,0 l/m 0,0 km/h (0 Bft) SW 232 0 min 0,000 mm 0,0 UV-I 0 W/m 13,8 C 14,3 C 0,0 km/h (0 Bft) 0,00 %
19.06.2015 02:35 14,2 C 98 % 1011,4 hPa 0,0 l/m 0,0 km/h (0 Bft) SW 224 0 min 0,000 mm 0,0 UV-I 0 W/m 13,9 C 14,2 C 0,0 km/h (0 Bft) 0,00 %
19.06.2015 02:40 14,2 C 97 % 1011,4 hPa 0,0 l/m 1,4 km/h (1 Bft) W-SW 252 0 min 0,000 mm 0,0 UV-I 0 W/m 13,7 C 14,2 C 4,0 km/h (1 Bft) 0,00 %
19.06.2015 02:45 14,2 C 97 % 1011,6 hPa 0,0 l/m 0,4 km/h (0 Bft) S 184 0 min 0,000 mm 0,0 UV-I 0 W/m 13,7 C 14,2 C 4,0 km/h (1 Bft) 0,00 %
19.06.2015 02:50 14,2 C 97 % 1011,5 hPa 0,0 l/m 0,7 km/h (0 Bft) S 190 0 min 0,000 mm 0,0 UV-I 0 W/m 13,7 C 14,2 C 4,0 km/h (1 Bft) 0,00 %
19.06.2015 02:55 14,3 C 97 % 1011,4 hPa 0,0 l/m 0,0 km/h (0 Bft) S-SW 199 0 min 0,000 mm 0,0 UV-I 0 W/m 13,8 C 14,3 C 0,0 km/h (0 Bft) 0,00 %
19.06.2015 03:00 14,3 C 97 % 1011,7 hPa 0,0 l/m 0,4 km/h (0 Bft) S 175 0 min 0,000 mm 0,0 UV-I 0 W/m 13,8 C 14,3 C 4,0 km/h (1 Bft) 0,00 %
19.06.2015 03:05 14,3 C 97 % 1011,5 hPa 0,0 l/m 4,0 km/h (1 Bft) W-SW 251 0 min 0,000 mm 0,0 UV-I 0 W/m 13,8 C 14,3 C 4,0 km/h (1 Bft) 0,00 %
19.06.2015 03:10 14,3 C 97 % 1011,7 hPa 0,0 l/m 0,0 km/h (0 Bft) O-NO 70 0 min 0,000 mm 0,0 UV-I 0 W/m 13,8 C 14,3 C 0,0 km/h (0 Bft) 0,00 %
19.06.2015 03:15 14,3 C 97 % 1011,5 hPa 0,0 l/m 4,3 km/h (1 Bft) W-SW 256 0 min 0,000 mm 0,0 UV-I 0 W/m 13,8 C 14,3 C 7,9 km/h (2 Bft) 0,00 %
19.06.2015 03:20 14,2 C 98 % 1011,7 hPa 0,0 l/m 2,2 km/h (1 Bft) SW 225 0 min 0,000 mm 0,0 UV-I 0 W/m 13,9 C 14,2 C 4,0 km/h (1 Bft) 0,00 %
19.06.2015 03:25 14,1 C 98 % 1011,8 hPa 0,3 l/m 1,4 km/h (1 Bft) SO 141 0 min 0,000 mm 0,0 UV-I 0 W/m 13,8 C 14,1 C 4,0 km/h (1 Bft) 0,00 %
19.06.2015 03:30 14,0 C 98 % 1011,8 hPa 0,0 l/m 4,7 km/h (1 Bft) W-SW 256 0 min 0,000 mm 0,0 UV-I 0 W/m 13,7 C 14,0 C 7,9 km/h (2 Bft) 0,00 %
19.06.2015 03:35 13,9 C 98 % 1011,9 hPa 0,0 l/m 4,0 km/h (1 Bft) N 356 0 min 0,000 mm 0,0 UV-I 0 W/m 13,6 C 13,9 C 7,9 km/h (2 Bft) 0,00 %
19.06.2015 03:40 13,8 C 97 % 1012,2 hPa 0,0 l/m 6,8 km/h (2 Bft) W-SW 256 0 min 0,000 mm 0,0 UV-I 0 W/m 13,3 C 13,6 C 7,9 km/h (2 Bft) 0,00 %
19.06.2015 03:45 13,7 C 97 % 1012,1 hPa 0,0 l/m 4,7 km/h (1 Bft) W-SW 252 0 min 0,000 mm 0,0 UV-I 0 W/m 13,2 C 13,7 C 7,9 km/h (2 Bft) 0,00 %
19.06.2015 03:50 13,6 C 96 % 1012,1 hPa 0,0 l/m 13,0 km/h (3 Bft) W-SW 252 0 min 0,000 mm 0,0 UV-I 0 W/m 13,0 C 10,2 C 15,8 km/h (3 Bft) 0,00 %
19.06.2015 03:55 13,5 C 96 % 1012,2 hPa 0,0 l/m 10,4 km/h (2 Bft) W 275 0 min 0,000 mm 0,0 UV-I 0 W/m 12,9 C 11,3 C 15,8 km/h (3 Bft) 0,00 %
19.06.2015 04:00 13,4 C 95 % 1012,5 hPa 0,0 l/m 6,8 km/h (2 Bft) W-SW 255 0 min 0,000 mm 0,0 UV-I 0 W/m 12,6 C 13,2 C 11,9 km/h (2 Bft) 0,00 %
19.06.2015 04:05 13,4 C 95 % 1012,4 hPa 0,0 l/m 4,3 km/h (1 Bft) W-SW 255 0 min 0,000 mm 0,0 UV-I 0 W/m 12,6 C 13,4 C 7,9 km/h (2 Bft) 0,00 %
19.06.2015 04:10 13,3 C 94 % 1012,3 hPa 0,0 l/m 7,2 km/h (2 Bft) W-SW 255 0 min 0,000 mm 0,0 UV-I 0 W/m 12,4 C 12,8 C 7,9 km/h (2 Bft) 0,00 %
19.06.2015 04:15 13,3 C 94 % 1012,4 hPa 0,0 l/m 4,3 km/h (1 Bft) S-SW 209 0 min 0,000 mm 0,0 UV-I 0 W/m 12,4 C 13,3 C 7,9 km/h (2 Bft) 0,00 %
19.06.2015 04:20 13,2 C 95 % 1012,5 hPa 0,0 l/m 2,9 km/h (1 Bft) W-NW 298 0 min 0,000 mm 0,0 UV-I 0 W/m 12,4 C 13,2 C 7,9 km/h (2 Bft) 0,00 %
19.06.2015 04:25 13,2 C 95 % 1012,4 hPa 0,0 l/m 0,4 km/h (0 Bft) O 97 0 min 0,000 mm 0,0 UV-I 0 W/m 12,4 C 13,2 C 4,0 km/h (1 Bft) 0,00 %
19.06.2015 04:30 13,2 C 95 % 1012,8 hPa 0,0 l/m 1,8 km/h (1 Bft) W-NW 285 0 min 0,000 mm 0,0 UV-I 0 W/m 12,4 C 13,2 C 4,0 km/h (1 Bft) 0,00 %
19.06.2015 04:35 13,2 C 94 % 1012,7 hPa 0,0 l/m 1,4 km/h (1 Bft) SW 214 0 min 0,000 mm 0,0 UV-I 0 W/m 12,3 C 13,2 C 4,0 km/h (1 Bft) 0,00 %
19.06.2015 04:40 13,2 C 94 % 1012,7 hPa 0,0 l/m 6,5 km/h (2 Bft) W-SW 252 0 min 0,000 mm 0,0 UV-I 0 W/m 12,3 C 13,2 C 11,9 km/h (2 Bft) 0,00 %
19.06.2015 04:45 13,2 C 94 % 1012,8 hPa 0,0 l/m 0,4 km/h (0 Bft) O-NO 64 0 min 0,000 mm 0,0 UV-I 0 W/m 12,3 C 13,2 C 4,0 km/h (1 Bft) 0,00 %
19.06.2015 04:50 13,2 C 93 % 1012,8 hPa 0,0 l/m 0,0 km/h (0 Bft) S 191 0 min 0,000 mm 0,0 UV-I 0 W/m 12,1 C 13,2 C 0,0 km/h (0 Bft) 0,00 %
19.06.2015 04:55 13,2 C 93 % 1012,7 hPa 0,0 l/m 0,4 km/h (0 Bft) S-SO 157 0 min 0,000 mm 0,0 UV-I 0 W/m 12,1 C 13,2 C 4,0 km/h (1 Bft) 0,00 %
19.06.2015 05:00 13,3 C 93 % 1012,7 hPa 0,0 l/m 0,4 km/h (0 Bft) SO 134 0 min 0,000 mm 0,0 UV-I 0 W/m 12,2 C 13,3 C 4,0 km/h (1 Bft) 0,00 %
19.06.2015 05:05 13,3 C 93 % 1012,7 hPa 0,0 l/m 6,5 km/h (2 Bft) W-SW 251 0 min 0,000 mm 0,0 UV-I 0 W/m 12,2 C 13,3 C 11,9 km/h (2 Bft) 0,00 %
19.06.2015 05:10 13,3 C 92 % 1012,9 hPa 0,0 l/m 0,7 km/h (0 Bft) N-NO 26 0 min 0,000 mm 0,0 UV-I 0 W/m 12,0 C 13,3 C 4,0 km/h (1 Bft) 0,00 %
19.06.2015 05:15 13,3 C 92 % 1012,9 hPa 0,0 l/m 1,8 km/h (1 Bft) W-NW 283 0 min 0,000 mm 0,0 UV-I 0 W/m 12,0 C 13,3 C 4,0 km/h (1 Bft) 0,00 %
19.06.2015 05:20 13,3 C 92 % 1013,1 hPa 0,0 l/m 2,9 km/h (1 Bft) NW 326 0 min 0,000 mm 0,0 UV-I 1 W/m 12,0 C 13,3 C 4,0 km/h (1 Bft) 0,00 %
19.06.2015 05:25 13,3 C 91 % 1013,0 hPa 0,0 l/m 0,4 km/h (0 Bft) S 174 0 min 0,000 mm 0,0 UV-I 3 W/m 11,9 C 13,3 C 4,0 km/h (1 Bft) 0,00 %
19.06.2015 05:30 13,4 C 91 % 1013,1 hPa 0,0 l/m 4,7 km/h (1 Bft) N 357 0 min 0,000 mm 0,0 UV-I 6 W/m 12,0 C 13,4 C 7,9 km/h (2 Bft) 0,00 %
19.06.2015 05:35 13,4 C 91 % 1013,0 hPa 0,0 l/m 6,5 km/h (2 Bft) W 274 0 min 0,000 mm 1,0 UV-I 9 W/m 12,0 C 13,4 C 11,9 km/h (2 Bft) 0,00 %
19.06.2015 05:40 13,4 C 90 % 1012,9 hPa 0,0 l/m 4,7 km/h (1 Bft) SW 216 0 min 0,000 mm 1,0 UV-I 16 W/m 11,8 C 13,4 C 7,9 km/h (2 Bft) 0,00 %
19.06.2015 05:45 13,5 C 90 % 1013,1 hPa 0,0 l/m 0,0 km/h (0 Bft) S 179 0 min 0,000 mm 1,0 UV-I 6 W/m 11,9 C 13,5 C 0,0 km/h (0 Bft) 0,00 %
19.06.2015 05:50 13,5 C 89 % 1012,9 hPa 0,0 l/m 1,8 km/h (1 Bft) O 83 0 min 0,000 mm 1,0 UV-I 7 W/m 11,7 C 13,5 C 4,0 km/h (1 Bft) 0,00 %
19.06.2015 05:55 13,6 C 89 % 1013,3 hPa 0,0 l/m 0,4 km/h (0 Bft) N-NO 24 0 min 0,000 mm 1,0 UV-I 17 W/m 11,8 C 13,6 C 4,0 km/h (1 Bft) 0,00 %
19.06.2015 06:00 13,7 C 88 % 1013,0 hPa 0,0 l/m 1,4 km/h (1 Bft) NO 40 0 min 0,000 mm 0,0 UV-I 17 W/m 11,7 C 13,7 C 4,0 km/h (1 Bft) 0,00 %
19.06.2015 06:05 13,7 C 88 % 1013,2 hPa 0,0 l/m 5,8 km/h (2 Bft) W-SW 252 0 min 0,000 mm 0,0 UV-I 19 W/m 11,7 C 13,7 C 7,9 km/h (2 Bft) 0,00 %
19.06.2015 06:10 13,6 C 88 % 1013,3 hPa 0,0 l/m 2,9 km/h (1 Bft) O 87 0 min 0,000 mm 0,0 UV-I 26 W/m 11,6 C 13,6 C 4,0 km/h (1 Bft) 0,00 %
19.06.2015 06:15 13,6 C 88 % 1013,3 hPa 0,0 l/m 0,4 km/h (0 Bft) O-SO 116 0 min 0,000 mm 0,0 UV-I 19 W/m 11,6 C 13,6 C 4,0 km/h (1 Bft) 0,00 %
19.06.2015 06:20 13,6 C 88 % 1013,5 hPa 0,0 l/m 4,0 km/h (1 Bft) SW 236 0 min 0,000 mm 0,0 UV-I 36 W/m 11,6 C 13,6 C 7,9 km/h (2 Bft) 0,00 %
19.06.2015 06:25 13,5 C 88 % 1013,4 hPa 0,0 l/m 0,0 km/h (0 Bft) NO 36 0 min 0,000 mm 0,0 UV-I 41 W/m 11,6 C 13,5 C 0,0 km/h (0 Bft) 0,00 %
19.06.2015 06:30 13,5 C 88 % 1013,6 hPa 0,0 l/m 4,3 km/h (1 Bft) W-SW 250 0 min 0,000 mm 0,0 UV-I 45 W/m 11,6 C 13,5 C 7,9 km/h (2 Bft) 0,00 %
19.06.2015 06:35 13,5 C 89 % 1013,6 hPa 0,0 l/m 5,8 km/h (2 Bft) W-NW 285 0 min 0,000 mm 0,0 UV-I 64 W/m 11,7 C 13,5 C 7,9 km/h (2 Bft) 0,00 %
19.06.2015 06:40 13,5 C 88 % 1013,7 hPa 0,0 l/m 0,4 km/h (0 Bft) S-SO 157 0 min 0,000 mm 0,0 UV-I 70 W/m 11,6 C 13,5 C 4,0 km/h (1 Bft) 0,00 %
19.06.2015 06:45 13,5 C 88 % 1013,9 hPa 0,0 l/m 2,2 km/h (1 Bft) SO 132 0 min 0,000 mm 0,0 UV-I 94 W/m 11,6 C 13,5 C 4,0 km/h (1 Bft) 0,00 %
19.06.2015 06:50 13,6 C 88 % 1013,9 hPa 0,0 l/m 5,4 km/h (1 Bft) SW 218 0 min 0,000 mm 1,0 UV-I 114 W/m 11,6 C 13,6 C 7,9 km/h (2 Bft) 0,00 %
19.06.2015 06:55 13,6 C 88 % 1013,9 hPa 0,0 l/m 1,4 km/h (1 Bft) W-NW 301 0 min 0,000 mm 1,0 UV-I 118 W/m 11,6 C 13,6 C 4,0 km/h (1 Bft) 0,00 %
19.06.2015 07:00 13,7 C 88 % 1014,0 hPa 0,0 l/m 1,4 km/h (1 Bft) SW 224 0 min 0,000 mm 1,0 UV-I 84 W/m 11,7 C 13,7 C 4,0 km/h (1 Bft) 0,00 %
19.06.2015 07:05 13,8 C 87 % 1014,2 hPa 0,0 l/m 2,2 km/h (1 Bft) W-SW 249 0 min 0,000 mm 1,0 UV-I 53 W/m 11,7 C 13,8 C 4,0 km/h (1 Bft) 0,00 %
19.06.2015 07:10 14,0 C 86 % 1014,0 hPa 0,0 l/m 0,0 km/h (0 Bft) W-SW 255 0 min 0,000 mm 1,0 UV-I 43 W/m 11,7 C 14,0 C 0,0 km/h (0 Bft) 0,00 %
19.06.2015 07:15 14,1 C 86 % 1014,1 hPa 0,0 l/m 4,3 km/h (1 Bft) N 10 0 min 0,000 mm 1,0 UV-I 57 W/m 11,8 C 14,1 C 7,9 km/h (2 Bft) 0,00 %
19.06.2015 07:20 14,2 C 82 % 1013,9 hPa 0,0 l/m 2,2 km/h (1 Bft) W-SW 254 0 min 0,000 mm 1,0 UV-I 51 W/m 11,2 C 14,2 C 4,0 km/h (1 Bft) 0,00 %
19.06.2015 07:25 14,2 C 81 % 1014,0 hPa 0,0 l/m 3,2 km/h (1 Bft) SW 226 0 min 0,000 mm 1,0 UV-I 45 W/m 11,0 C 14,2 C 7,9 km/h (2 Bft) 0,00 %
19.06.2015 07:30 14,4 C 81 % 1014,1 hPa 0,0 l/m 6,8 km/h (2 Bft) W-SW 256 0 min 0,000 mm 1,0 UV-I 45 W/m 11,2 C 14,2 C 7,9 km/h (2 Bft) 0,00 %
19.06.2015 07:35 14,5 C 80 % 1014,1 hPa 0,0 l/m 0,0 km/h (0 Bft) W-SW 256 0 min 0,000 mm 1,0 UV-I 37 W/m 11,1 C 14,5 C 0,0 km/h (0 Bft) 0,00 %
19.06.2015 07:40 14,5 C 80 % 1014,1 hPa 0,0 l/m 3,2 km/h (1 Bft) W-SW 256 0 min 0,000 mm 1,0 UV-I 47 W/m 11,1 C 14,5 C 7,9 km/h (2 Bft) 0,00 %
19.06.2015 07:45 14,4 C 80 % 1014,2 hPa 0,0 l/m 5,8 km/h (2 Bft) S-SO 168 0 min 0,000 mm 1,0 UV-I 52 W/m 11,0 C 14,4 C 7,9 km/h (2 Bft) 0,00 %
19.06.2015 07:50 14,5 C 80 % 1014,1 hPa 0,0 l/m 7,2 km/h (2 Bft) W-SW 244 0 min 0,000 mm 1,0 UV-I 67 W/m 11,1 C 14,0 C 7,9 km/h (2 Bft) 0,00 %
19.06.2015 07:55 14,7 C 80 % 1014,0 hPa 0,0 l/m 0,0 km/h (0 Bft) S 171 0 min 0,000 mm 2,0 UV-I 67 W/m 11,3 C 14,7 C 0,0 km/h (0 Bft) 0,00 %
19.06.2015 08:00 14,9 C 78 % 1014,1 hPa 0,0 l/m 9,0 km/h (2 Bft) W-SW 252 0 min 0,000 mm 1,0 UV-I 125 W/m 11,1 C 13,5 C 11,9 km/h (2 Bft) 0,00 %
19.06.2015 08:05 15,2 C 79 % 1013,9 hPa 0,0 l/m 0,7 km/h (0 Bft) O-NO 69 0 min 0,000 mm 1,0 UV-I 94 W/m 11,6 C 15,2 C 4,0 km/h (1 Bft) 0,00 %
19.06.2015 08:10 15,2 C 79 % 1013,9 hPa 0,0 l/m 1,4 km/h (1 Bft) W-SW 255 0 min 0,000 mm 2,0 UV-I 133 W/m 11,6 C 15,2 C 4,0 km/h (1 Bft) 0,00 %
19.06.2015 08:15 15,2 C 78 % 1013,9 hPa 0,0 l/m 0,0 km/h (0 Bft) SW 230 0 min 0,000 mm 1,0 UV-I 93 W/m 11,4 C 15,2 C 0,0 km/h (0 Bft) 0,00 %
19.06.2015 08:20 15,4 C 77 % 1013,8 hPa 0,0 l/m 2,9 km/h (1 Bft) W-SW 241 0 min 0,000 mm 2,0 UV-I 126 W/m 11,4 C 15,4 C 7,9 km/h (2 Bft) 0,00 %
19.06.2015 08:25 15,6 C 76 % 1013,8 hPa 0,0 l/m 5,8 km/h (2 Bft) W 267 0 min 0,000 mm 2,0 UV-I 152 W/m 11,4 C 15,6 C 7,9 km/h (2 Bft) 0,00 %
19.06.2015 08:30 15,9 C 74 % 1013,7 hPa 0,0 l/m 4,0 km/h (1 Bft) SW 235 0 min 0,000 mm 1,0 UV-I 147 W/m 11,3 C 15,9 C 4,0 km/h (1 Bft) 0,00 %
19.06.2015 08:35 16,2 C 73 % 1013,7 hPa 0,0 l/m 0,4 km/h (0 Bft) S-SW 206 0 min 0,000 mm 1,0 UV-I 182 W/m 11,4 C 16,2 C 4,0 km/h (1 Bft) 0,00 %
19.06.2015 08:40 16,1 C 74 % 1013,5 hPa 0,0 l/m 0,4 km/h (0 Bft) W-NW 289 0 min 0,000 mm 1,0 UV-I 165 W/m 11,5 C 16,1 C 4,0 km/h (1 Bft) 0,00 %
19.06.2015 08:45 15,9 C 74 % 1013,9 hPa 0,0 l/m 2,2 km/h (1 Bft) W-SW 255 0 min 0,000 mm 1,0 UV-I 130 W/m 11,3 C 15,9 C 4,0 km/h (1 Bft) 0,00 %
19.06.2015 08:50 15,9 C 74 % 1013,6 hPa 0,0 l/m 6,5 km/h (2 Bft) S 183 0 min 0,000 mm 1,0 UV-I 199 W/m 11,3 C 15,9 C 7,9 km/h (2 Bft) 0,00 %
19.06.2015 08:55 15,9 C 71 % 1013,7 hPa 0,0 l/m 1,4 km/h (1 Bft) N-NO 17 0 min 0,000 mm 1,0 UV-I 250 W/m 10,6 C 15,9 C 4,0 km/h (1 Bft) 0,00 %
19.06.2015 09:00 15,8 C 71 % 1013,8 hPa 0,0 l/m 9,0 km/h (2 Bft) W-SW 239 0 min 0,000 mm 2,0 UV-I 268 W/m 10,6 C 14,5 C 11,9 km/h (2 Bft) 0,00 %
19.06.2015 09:05 15,8 C 72 % 1013,8 hPa 0,0 l/m 3,2 km/h (1 Bft) NO 48 0 min 0,000 mm 2,0 UV-I 242 W/m 10,8 C 15,8 C 4,0 km/h (1 Bft) 0,00 %
19.06.2015 09:10 15,8 C 70 % 1013,9 hPa 0,0 l/m 0,4 km/h (0 Bft) SO 145 0 min 0,000 mm 2,0 UV-I 190 W/m 10,3 C 15,8 C 4,0 km/h (1 Bft) 0,00 %
19.06.2015 09:15 15,9 C 71 % 1013,7 hPa 0,0 l/m 0,4 km/h (0 Bft) S 186 0 min 0,000 mm 2,0 UV-I 295 W/m 10,6 C 15,9 C 4,0 km/h (1 Bft) 0,00 %
19.06.2015 09:20 16,2 C 68 % 1013,5 hPa 0,0 l/m 7,2 km/h (2 Bft) SW 218 0 min 0,000 mm 2,0 UV-I 249 W/m 10,3 C 15,8 C 7,9 km/h (2 Bft) 0,00 %
19.06.2015 09:25 16,7 C 69 % 1013,6 hPa 0,0 l/m 3,2 km/h (1 Bft) W-SW 241 0 min 0,000 mm 2,0 UV-I 288 W/m 11,0 C 16,7 C 4,0 km/h (1 Bft) 0,00 %
19.06.2015 09:30 16,8 C 69 % 1013,6 hPa 0,0 l/m 4,0 km/h (1 Bft) S-SW 206 5 min 0,000 mm 2,0 UV-I 419 W/m 11,1 C 16,8 C 4,0 km/h (1 Bft) 0,00 %
19.06.2015 09:35 16,6 C 70 % 1013,5 hPa 0,0 l/m 4,3 km/h (1 Bft) W-SW 256 0 min 0,000 mm 1,0 UV-I 234 W/m 11,1 C 16,6 C 7,9 km/h (2 Bft) 0,00 %
19.06.2015 09:40 16,3 C 72 % 1013,8 hPa 0,0 l/m 0,0 km/h (0 Bft) N-NO 22 0 min 0,000 mm 1,0 UV-I 226 W/m 11,2 C 16,3 C 0,0 km/h (0 Bft) 0,00 %
19.06.2015 09:45 16,1 C 72 % 1013,9 hPa 0,0 l/m 0,0 km/h (0 Bft) S 178 0 min 0,000 mm 2,0 UV-I 247 W/m 11,0 C 16,1 C 0,0 km/h (0 Bft) 0,00 %
19.06.2015 09:50 16,0 C 72 % 1014,0 hPa 0,0 l/m 3,2 km/h (1 Bft) O-SO 110 0 min 0,000 mm 2,0 UV-I 205 W/m 11,0 C 16,0 C 4,0 km/h (1 Bft) 0,00 %
19.06.2015 09:55 16,0 C 70 % 1014,0 hPa 0,0 l/m 3,2 km/h (1 Bft) O-NO 76 0 min 0,000 mm 2,0 UV-I 250 W/m 10,5 C 16,0 C 7,9 km/h (2 Bft) 0,00 %
19.06.2015 10:00 16,2 C 69 % 1014,0 hPa 0,0 l/m 0,7 km/h (0 Bft) S-SW 204 0 min 0,000 mm 3,0 UV-I 225 W/m 10,5 C 16,2 C 4,0 km/h (1 Bft) 0,00 %
19.06.2015 10:05 16,7 C 68 % 1013,7 hPa 0,0 l/m 5,4 km/h (1 Bft) SW 226 0 min 0,000 mm 2,0 UV-I 288 W/m 10,8 C 16,7 C 7,9 km/h (2 Bft) 0,00 %
19.06.2015 10:10 17,1 C 68 % 1014,0 hPa 0,0 l/m 5,8 km/h (2 Bft) SW 233 0 min 0,000 mm 2,0 UV-I 259 W/m 11,1 C 17,1 C 7,9 km/h (2 Bft) 0,00 %
19.06.2015 10:15 17,1 C 68 % 1013,6 hPa 0,0 l/m 4,3 km/h (1 Bft) S-SW 194 0 min 0,000 mm 3,0 UV-I 322 W/m 11,1 C 17,1 C 7,9 km/h (2 Bft) 0,00 %
19.06.2015 10:20 17,4 C 67 % 1013,8 hPa 0,0 l/m 0,0 km/h (0 Bft) O-SO 115 0 min 0,000 mm 3,0 UV-I 324 W/m 11,2 C 17,4 C 0,0 km/h (0 Bft) 0,00 %
19.06.2015 10:25 17,5 C 67 % 1013,7 hPa 0,0 l/m 8,3 km/h (2 Bft) W-SW 255 5 min 0,000 mm 2,0 UV-I 590 W/m 11,3 C 16,6 C 15,8 km/h (3 Bft) 0,00 %
19.06.2015 10:30 17,3 C 67 % 1013,7 hPa 0,0 l/m 3,2 km/h (1 Bft) W-SW 242 0 min 0,000 mm 3,0 UV-I 343 W/m 11,1 C 17,3 C 4,0 km/h (1 Bft) 0,00 %
19.06.2015 10:35 17,1 C 67 % 1013,7 hPa 0,0 l/m 3,2 km/h (1 Bft) NO 36 0 min 0,000 mm 3,0 UV-I 285 W/m 10,9 C 17,1 C 4,0 km/h (1 Bft) 0,00 %
19.06.2015 10:40 17,3 C 65 % 1013,7 hPa 0,0 l/m 2,2 km/h (1 Bft) W-NW 290 0 min 0,000 mm 2,0 UV-I 216 W/m 10,7 C 17,3 C 7,9 km/h (2 Bft) 0,00 %
19.06.2015 10:45 17,4 C 66 % 1013,6 hPa 0,0 l/m 1,4 km/h (1 Bft) W-SW 237 0 min 0,000 mm 3,0 UV-I 200 W/m 11,0 C 17,4 C 4,0 km/h (1 Bft) 0,00 %
19.06.2015 10:50 17,4 C 64 % 1013,4 hPa 0,0 l/m 0,7 km/h (0 Bft) S-SW 198 0 min 0,000 mm 2,0 UV-I 255 W/m 10,5 C 17,4 C 4,0 km/h (1 Bft) 0,00 %
19.06.2015 10:55 17,4 C 65 % 1013,4 hPa 0,0 l/m 5,8 km/h (2 Bft) SW 229 0 min 0,000 mm 2,0 UV-I 299 W/m 10,8 C 17,4 C 7,9 km/h (2 Bft) 0,00 %
19.06.2015 11:00 17,2 C 66 % 1013,9 hPa 0,0 l/m 7,2 km/h (2 Bft) W 278 0 min 0,000 mm 2,0 UV-I 426 W/m 10,8 C 16,8 C 15,8 km/h (3 Bft) 0,00 %
19.06.2015 11:05 17,0 C 66 % 1013,8 hPa 0,0 l/m 0,7 km/h (0 Bft) O-NO 75 5 min 0,000 mm 2,0 UV-I 582 W/m 10,6 C 17,0 C 4,0 km/h (1 Bft) 0,00 %
19.06.2015 11:10 16,9 C 67 % 1013,9 hPa 0,0 l/m 4,0 km/h (1 Bft) S-SW 212 0 min 0,000 mm 2,0 UV-I 434 W/m 10,7 C 16,9 C 4,0 km/h (1 Bft) 0,00 %
19.06.2015 11:15 16,6 C 68 % 1014,0 hPa 0,0 l/m 6,8 km/h (2 Bft) N-NO 33 0 min 0,000 mm 2,0 UV-I 446 W/m 10,7 C 16,4 C 11,9 km/h (2 Bft) 0,00 %
19.06.2015 11:20 16,4 C 68 % 1014,1 hPa 0,0 l/m 1,4 km/h (1 Bft) N-NW 337 5 min 0,000 mm 2,0 UV-I 552 W/m 10,5 C 16,4 C 4,0 km/h (1 Bft) 0,00 %
19.06.2015 11:25 16,2 C 69 % 1014,0 hPa 0,0 l/m 2,2 km/h (1 Bft) O-NO 71 0 min 0,000 mm 1,0 UV-I 411 W/m 10,5 C 16,2 C 4,0 km/h (1 Bft) 0,00 %
19.06.2015 11:30 15,8 C 71 % 1014,2 hPa 0,0 l/m 1,4 km/h (1 Bft) S-SO 165 0 min 0,000 mm 1,0 UV-I 335 W/m 10,6 C 15,8 C 4,0 km/h (1 Bft) 0,00 %
19.06.2015 11:35 15,4 C 72 % 1014,3 hPa 0,0 l/m 2,2 km/h (1 Bft) S-SW 197 0 min 0,000 mm 1,0 UV-I 406 W/m 10,4 C 15,4 C 7,9 km/h (2 Bft) 0,00 %
19.06.2015 11:40 15,3 C 72 % 1014,7 hPa 0,0 l/m 14,0 km/h (3 Bft) S-SW 193 5 min 0,000 mm 2,0 UV-I 515 W/m 10,3 C 11,9 C 24,1 km/h (4 Bft) 0,00 %
19.06.2015 11:45 15,4 C 70 % 1014,6 hPa 0,0 l/m 4,7 km/h (1 Bft) NO 53 0 min 0,000 mm 2,0 UV-I 386 W/m 10,0 C 15,4 C 7,9 km/h (2 Bft) 0,00 %
19.06.2015 11:50 15,5 C 69 % 1014,7 hPa 0,0 l/m 1,4 km/h (1 Bft) O-NO 60 5 min 0,000 mm 3,0 UV-I 599 W/m 9,8 C 15,5 C 4,0 km/h (1 Bft) 0,00 %
19.06.2015 11:55 15,7 C 69 % 1014,6 hPa 0,0 l/m 3,2 km/h (1 Bft) W-SW 240 0 min 0,000 mm 2,0 UV-I 395 W/m 10,0 C 15,7 C 4,0 km/h (1 Bft) 0,00 %
19.06.2015 12:00 16,0 C 69 % 1014,6 hPa 0,0 l/m 2,9 km/h (1 Bft) S-SW 201 0 min 0,000 mm 4,0 UV-I 313 W/m 10,3 C 16,0 C 11,9 km/h (2 Bft) 0,00 %
19.06.2015 12:05 16,4 C 68 % 1014,6 hPa 0,0 l/m 9,7 km/h (2 Bft) SW 227 0 min 0,000 mm 5,0 UV-I 328 W/m 10,5 C 14,8 C 11,9 km/h (2 Bft) 0,00 %
19.06.2015 12:10 16,8 C 68 % 1014,3 hPa 0,0 l/m 6,5 km/h (2 Bft) NW 320 0 min 0,000 mm 3,0 UV-I 241 W/m 10,9 C 16,8 C 7,9 km/h (2 Bft) 0,00 %
19.06.2015 12:15 17,0 C 68 % 1014,4 hPa 0,0 l/m 2,9 km/h (1 Bft) O 94 0 min 0,000 mm 5,0 UV-I 272 W/m 11,0 C 17,0 C 7,9 km/h (2 Bft) 0,00 %
19.06.2015 12:20 17,1 C 66 % 1014,1 hPa 0,0 l/m 9,0 km/h (2 Bft) W-NW 295 0 min 0,000 mm 6,0 UV-I 297 W/m 10,7 C 15,9 C 15,8 km/h (3 Bft) 0,00 %
19.06.2015 12:25 17,5 C 63 % 1014,2 hPa 0,0 l/m 1,4 km/h (1 Bft) NW 310 0 min 0,000 mm 5,0 UV-I 282 W/m 10,4 C 17,5 C 4,0 km/h (1 Bft) 0,00 %
19.06.2015 12:30 17,9 C 62 % 1014,1 hPa 0,0 l/m 0,4 km/h (0 Bft) NO 46 0 min 0,000 mm 4,0 UV-I 166 W/m 10,5 C 17,9 C 4,0 km/h (1 Bft) 0,00 %
19.06.2015 12:35 17,7 C 62 % 1014,4 hPa 0,0 l/m 1,8 km/h (1 Bft) SW 229 0 min 0,000 mm 3,0 UV-I 221 W/m 10,3 C 17,7 C 7,9 km/h (2 Bft) 0,00 %
19.06.2015 12:40 17,4 C 64 % 1014,2 hPa 0,0 l/m 8,3 km/h (2 Bft) NW 308 0 min 0,000 mm 3,0 UV-I 318 W/m 10,5 C 16,5 C 11,9 km/h (2 Bft) 0,00 %
19.06.2015 12:45 17,3 C 64 % 1014,2 hPa 0,0 l/m 4,3 km/h (1 Bft) N 11 0 min 0,000 mm 2,0 UV-I 317 W/m 10,4 C 17,3 C 11,9 km/h (2 Bft) 0,00 %
19.06.2015 12:50 17,2 C 64 % 1014,4 hPa 0,0 l/m 1,4 km/h (1 Bft) SO 132 0 min 0,000 mm 3,0 UV-I 369 W/m 10,3 C 17,2 C 4,0 km/h (1 Bft) 0,00 %
19.06.2015 12:55 17,1 C 64 % 1014,3 hPa 0,0 l/m 3,2 km/h (1 Bft) S-SW 207 0 min 0,000 mm 2,0 UV-I 300 W/m 10,2 C 17,1 C 4,0 km/h (1 Bft) 0,00 %
19.06.2015 13:00 17,0 C 65 % 1014,4 hPa 0,0 l/m 2,9 km/h (1 Bft) W-NW 302 0 min 0,000 mm 2,0 UV-I 425 W/m 10,4 C 17,0 C 7,9 km/h (2 Bft) 0,00 %
19.06.2015 13:05 16,7 C 66 % 1014,5 hPa 0,0 l/m 2,9 km/h (1 Bft) W 275 5 min 0,000 mm 2,0 UV-I 939 W/m 10,3 C 16,7 C 4,0 km/h (1 Bft) 0,00 %
19.06.2015 13:10 16,4 C 68 % 1014,6 hPa 0,0 l/m 7,9 km/h (2 Bft) N-NW 336 5 min 0,000 mm 2,0 UV-I 943 W/m 10,5 C 15,6 C 11,9 km/h (2 Bft) 0,00 %
19.06.2015 13:15 16,2 C 70 % 1014,5 hPa 0,0 l/m 1,8 km/h (1 Bft) S-SW 210 5 min 0,000 mm 2,0 UV-I 548 W/m 10,7 C 16,2 C 4,0 km/h (1 Bft) 0,00 %
19.06.2015 13:20 16,0 C 71 % 1014,6 hPa 0,0 l/m 2,2 km/h (1 Bft) O 89 5 min 0,000 mm 4,0 UV-I 890 W/m 10,7 C 16,0 C 7,9 km/h (2 Bft) 0,00 %
19.06.2015 13:25 16,1 C 69 % 1014,3 hPa 0,0 l/m 6,8 km/h (2 Bft) SW 229 5 min 0,000 mm 5,0 UV-I 549 W/m 10,4 C 15,9 C 11,9 km/h (2 Bft) 0,00 %
19.06.2015 13:30 16,7 C 67 % 1014,3 hPa 0,0 l/m 4,0 km/h (1 Bft) W-SW 255 5 min 0,000 mm 4,0 UV-I 565 W/m 10,5 C 16,7 C 7,9 km/h (2 Bft) 0,00 %
19.06.2015 13:35 17,2 C 67 % 1014,3 hPa 0,0 l/m 4,3 km/h (1 Bft) O-SO 116 0 min 0,000 mm 2,0 UV-I 464 W/m 11,0 C 17,2 C 7,9 km/h (2 Bft) 0,00 %
19.06.2015 13:40 16,9 C 69 % 1014,4 hPa 0,0 l/m 18,4 km/h (3 Bft) NW 313 5 min 0,000 mm 2,0 UV-I 493 W/m 11,2 C 12,6 C 28,1 km/h (4 Bft) 0,00 %
19.06.2015 13:45 16,5 C 68 % 1014,5 hPa 0,0 l/m 0,0 km/h (0 Bft) S-SO 147 0 min 0,000 mm 2,0 UV-I 419 W/m 10,6 C 16,5 C 0,0 km/h (0 Bft) 0,00 %
19.06.2015 13:50 16,5 C 69 % 1014,3 hPa 0,0 l/m 1,4 km/h (1 Bft) W-NW 301 0 min 0,000 mm 2,0 UV-I 467 W/m 10,8 C 16,5 C 4,0 km/h (1 Bft) 0,00 %
19.06.2015 13:55 16,7 C 67 % 1014,3 hPa 0,0 l/m 1,4 km/h (1 Bft) N-NW 344 0 min 0,000 mm 3,0 UV-I 378 W/m 10,5 C 16,7 C 4,0 km/h (1 Bft) 0,00 %
19.06.2015 14:00 17,3 C 65 % 1014,2 hPa 0,0 l/m 5,8 km/h (2 Bft) W-SW 253 0 min 0,000 mm 4,0 UV-I 353 W/m 10,7 C 17,3 C 7,9 km/h (2 Bft) 0,00 %
19.06.2015 14:05 17,9 C 61 % 1014,1 hPa 0,0 l/m 6,5 km/h (2 Bft) N 7 0 min 0,000 mm 3,0 UV-I 352 W/m 10,3 C 17,9 C 7,9 km/h (2 Bft) 0,00 %
19.06.2015 14:10 18,1 C 63 % 1014,0 hPa 0,0 l/m 10,4 km/h (2 Bft) W 279 0 min 0,000 mm 4,0 UV-I 324 W/m 10,9 C 16,4 C 11,9 km/h (2 Bft) 0,00 %
19.06.2015 14:15 18,3 C 62 % 1013,9 hPa 0,0 l/m 1,8 km/h (1 Bft) S-SW 205 0 min 0,000 mm 5,0 UV-I 274 W/m 10,9 C 18,3 C 4,0 km/h (1 Bft) 0,00 %
19.06.2015 14:20 18,9 C 59 % 1013,7 hPa 0,0 l/m 4,0 km/h (1 Bft) N-NW 327 0 min 0,000 mm 3,0 UV-I 288 W/m 10,7 C 18,9 C 4,0 km/h (1 Bft) 0,00 %
19.06.2015 14:25 18,9 C 58 % 1013,7 hPa 0,0 l/m 2,9 km/h (1 Bft) N 352 5 min 0,000 mm 3,0 UV-I 934 W/m 10,5 C 18,9 C 4,0 km/h (1 Bft) 0,00 %
19.06.2015 14:30 18,4 C 62 % 1013,9 hPa 0,0 l/m 11,5 km/h (2 Bft) W-NW 283 5 min 0,000 mm 2,0 UV-I 913 W/m 11,0 C 16,4 C 15,8 km/h (3 Bft) 0,00 %
19.06.2015 14:35 18,1 C 63 % 1013,8 hPa 0,0 l/m 1,4 km/h (1 Bft) W-SW 256 0 min 0,000 mm 2,0 UV-I 232 W/m 10,9 C 18,1 C 4,0 km/h (1 Bft) 0,00 %
19.06.2015 14:40 17,9 C 61 % 1014,0 hPa 0,0 l/m 5,4 km/h (1 Bft) W-SW 256 0 min 0,000 mm 4,0 UV-I 278 W/m 10,3 C 17,9 C 7,9 km/h (2 Bft) 0,00 %
19.06.2015 14:45 18,4 C 58 % 1013,8 hPa 0,0 l/m 9,7 km/h (2 Bft) W 267 0 min 0,000 mm 2,0 UV-I 323 W/m 10,0 C 17,0 C 15,8 km/h (3 Bft) 0,00 %
19.06.2015 14:50 18,7 C 55 % 1013,9 hPa 0,0 l/m 4,0 km/h (1 Bft) W-NW 292 5 min 0,000 mm 2,0 UV-I 709 W/m 9,5 C 18,7 C 7,9 km/h (2 Bft) 0,00 %
19.06.2015 14:55 18,6 C 51 % 1014,0 hPa 0,0 l/m 6,5 km/h (2 Bft) W-SW 256 5 min 0,000 mm 2,0 UV-I 701 W/m 8,3 C 18,6 C 7,9 km/h (2 Bft) 0,00 %
19.06.2015 15:00 18,5 C 51 % 1014,1 hPa 0,0 l/m 0,0 km/h (0 Bft) S 175 5 min 0,000 mm 2,0 UV-I 870 W/m 8,2 C 18,5 C 0,0 km/h (0 Bft) 0,00 %
19.06.2015 15:05 18,3 C 52 % 1013,9 hPa 0,0 l/m 2,9 km/h (1 Bft) S-SO 156 5 min 0,000 mm 2,0 UV-I 935 W/m 8,3 C 18,3 C 7,9 km/h (2 Bft) 0,00 %
19.06.2015 15:10 18,1 C 52 % 1014,1 hPa 0,0 l/m 3,2 km/h (1 Bft) O-SO 117 5 min 0,000 mm 2,0 UV-I 837 W/m 8,1 C 18,1 C 7,9 km/h (2 Bft) 0,00 %
19.06.2015 15:15 18,1 C 52 % 1014,0 hPa 0,0 l/m 5,8 km/h (2 Bft) W-SW 256 5 min 0,000 mm 2,0 UV-I 536 W/m 8,1 C 18,1 C 11,9 km/h (2 Bft) 0,00 %
19.06.2015 15:20 18,2 C 52 % 1014,1 hPa 0,0 l/m 0,0 km/h (0 Bft) S-SO 151 5 min 0,000 mm 2,0 UV-I 729 W/m 8,2 C 18,2 C 0,0 km/h (0 Bft) 0,00 %
19.06.2015 15:25 18,8 C 53 % 1014,0 hPa 0,0 l/m 0,0 km/h (0 Bft) S 172 0 min 0,000 mm 2,0 UV-I 328 W/m 9,0 C 18,8 C 0,0 km/h (0 Bft) 0,00 %
19.06.2015 15:30 19,2 C 55 % 1014,0 hPa 0,0 l/m 2,2 km/h (1 Bft) N 355 0 min 0,000 mm 2,0 UV-I 381 W/m 9,9 C 19,2 C 4,0 km/h (1 Bft) 0,00 %
19.06.2015 15:35 18,8 C 53 % 1013,8 hPa 0,0 l/m 1,8 km/h (1 Bft) O-SO 112 5 min 0,000 mm 2,0 UV-I 553 W/m 9,0 C 18,8 C 7,9 km/h (2 Bft) 0,00 %
19.06.2015 15:40 18,3 C 56 % 1014,1 hPa 0,0 l/m 4,7 km/h (1 Bft) NW 312 0 min 0,000 mm 2,0 UV-I 409 W/m 9,4 C 18,3 C 7,9 km/h (2 Bft) 0,00 %
19.06.2015 15:45 17,9 C 57 % 1014,2 hPa 0,0 l/m 1,4 km/h (1 Bft) W-SW 254 0 min 0,000 mm 2,0 UV-I 344 W/m 9,3 C 17,9 C 4,0 km/h (1 Bft) 0,00 %
19.06.2015 15:50 18,1 C 56 % 1014,2 hPa 0,0 l/m 0,0 km/h (0 Bft) W-SW 255 0 min 0,000 mm 2,0 UV-I 290 W/m 9,2 C 18,1 C 0,0 km/h (0 Bft) 0,00 %
19.06.2015 15:55 18,1 C 56 % 1014,1 hPa 0,0 l/m 0,4 km/h (0 Bft) W 268 0 min 0,000 mm 2,0 UV-I 310 W/m 9,2 C 18,1 C 4,0 km/h (1 Bft) 0,00 %
19.06.2015 16:00 17,8 C 58 % 1014,4 hPa 0,0 l/m 0,0 km/h (0 Bft) SO 138 5 min 0,000 mm 2,0 UV-I 540 W/m 9,4 C 17,8 C 0,0 km/h (0 Bft) 0,00 %
19.06.2015 16:05 17,8 C 56 % 1014,3 hPa 0,0 l/m 0,0 km/h (0 Bft) S-SW 208 0 min 0,000 mm 1,0 UV-I 394 W/m 8,9 C 17,8 C 0,0 km/h (0 Bft) 0,00 %
19.06.2015 16:10 17,9 C 57 % 1014,5 hPa 0,0 l/m 0,4 km/h (0 Bft) S-SW 197 5 min 0,000 mm 1,0 UV-I 479 W/m 9,3 C 17,9 C 4,0 km/h (1 Bft) 0,00 %
19.06.2015 16:15 17,4 C 59 % 1014,5 hPa 0,0 l/m 0,0 km/h (0 Bft) S 178 5 min 0,000 mm 2,0 UV-I 395 W/m 9,3 C 17,4 C 0,0 km/h (0 Bft) 0,00 %
19.06.2015 16:20 17,2 C 58 % 1014,4 hPa 0,0 l/m 0,4 km/h (0 Bft) SO 143 5 min 0,000 mm 2,0 UV-I 441 W/m 8,9 C 17,2 C 4,0 km/h (1 Bft) 0,00 %
19.06.2015 16:25 17,5 C 58 % 1014,4 hPa 0,0 l/m 0,0 km/h (0 Bft) S 175 0 min 0,000 mm 2,0 UV-I 350 W/m 9,1 C 17,5 C 0,0 km/h (0 Bft) 0,00 %
19.06.2015 16:30 17,9 C 59 % 1014,5 hPa 0,0 l/m 4,0 km/h (1 Bft) W-NW 301 0 min 0,000 mm 2,0 UV-I 348 W/m 9,8 C 17,9 C 7,9 km/h (2 Bft) 0,00 %
19.06.2015 16:35 17,8 C 57 % 1014,7 hPa 0,0 l/m 9,0 km/h (2 Bft) SW 232 5 min 0,000 mm 2,0 UV-I 369 W/m 9,2 C 16,6 C 15,8 km/h (3 Bft) 0,00 %
19.06.2015 16:40 17,2 C 59 % 1014,8 hPa 0,0 l/m 2,9 km/h (1 Bft) W-SW 256 5 min 0,000 mm 2,0 UV-I 409 W/m 9,1 C 17,2 C 4,0 km/h (1 Bft) 0,00 %
19.06.2015 16:45 16,7 C 59 % 1014,9 hPa 0,0 l/m 3,2 km/h (1 Bft) N-NW 345 5 min 0,000 mm 1,0 UV-I 410 W/m 8,6 C 16,7 C 7,9 km/h (2 Bft) 0,00 %
19.06.2015 16:50 16,2 C 60 % 1014,9 hPa 0,0 l/m 0,4 km/h (0 Bft) S 189 5 min 0,000 mm 1,0 UV-I 415 W/m 8,4 C 16,2 C 4,0 km/h (1 Bft) 0,00 %
19.06.2015 16:55 15,9 C 60 % 1015,0 hPa 0,0 l/m 3,2 km/h (1 Bft) S 190 0 min 0,000 mm 1,0 UV-I 164 W/m 8,1 C 15,9 C 7,9 km/h (2 Bft) 0,00 %
19.06.2015 17:00 15,8 C 61 % 1015,0 hPa 0,0 l/m 0,0 km/h (0 Bft) O-NO 77 0 min 0,000 mm 1,0 UV-I 144 W/m 8,3 C 15,8 C 0,0 km/h (0 Bft) 0,00 %
19.06.2015 17:05 15,6 C 61 % 1015,0 hPa 0,0 l/m 1,4 km/h (1 Bft) W-NW 303 5 min 0,000 mm 1,0 UV-I 566 W/m 8,1 C 15,6 C 4,0 km/h (1 Bft) 0,00 %
19.06.2015 17:10 15,6 C 59 % 1015,0 hPa 0,0 l/m 1,8 km/h (1 Bft) O 86 5 min 0,000 mm 1,0 UV-I 361 W/m 7,6 C 15,6 C 4,0 km/h (1 Bft) 0,00 %
19.06.2015 17:15 15,5 C 57 % 1015,3 hPa 0,0 l/m 0,0 km/h (0 Bft) O 89 5 min 0,000 mm 1,0 UV-I 461 W/m 7,0 C 15,5 C 0,0 km/h (0 Bft) 0,00 %
19.06.2015 17:20 15,3 C 58 % 1015,3 hPa 0,0 l/m 0,0 km/h (0 Bft) S 176 5 min 0,000 mm 1,0 UV-I 368 W/m 7,1 C 15,3 C 0,0 km/h (0 Bft) 0,00 %
19.06.2015 17:25 15,2 C 58 % 1015,2 hPa 0,0 l/m 4,0 km/h (1 Bft) S-SW 199 5 min 0,000 mm 1,0 UV-I 304 W/m 7,0 C 15,2 C 7,9 km/h (2 Bft) 0,00 %
19.06.2015 17:30 15,2 C 59 % 1015,3 hPa 0,0 l/m 4,0 km/h (1 Bft) NW 309 5 min 0,000 mm 1,0 UV-I 303 W/m 7,2 C 15,2 C 7,9 km/h (2 Bft) 0,00 %
19.06.2015 17:35 15,3 C 59 % 1015,3 hPa 0,0 l/m 1,8 km/h (1 Bft) O-SO 104 0 min 0,000 mm 1,0 UV-I 279 W/m 7,3 C 15,3 C 4,0 km/h (1 Bft) 0,00 %
19.06.2015 17:40 15,4 C 58 % 1015,5 hPa 0,0 l/m 2,2 km/h (1 Bft) N 353 0 min 0,000 mm 1,0 UV-I 168 W/m 7,2 C 15,4 C 7,9 km/h (2 Bft) 0,00 %
19.06.2015 17:45 15,4 C 60 % 1015,5 hPa 0,0 l/m 4,7 km/h (1 Bft) O-SO 119 0 min 0,000 mm 1,0 UV-I 190 W/m 7,7 C 15,4 C 7,9 km/h (2 Bft) 0,00 %
19.06.2015 17:50 15,1 C 59 % 1015,5 hPa 0,0 l/m 2,9 km/h (1 Bft) W-SW 255 0 min 0,000 mm 1,0 UV-I 196 W/m 7,1 C 15,1 C 4,0 km/h (1 Bft) 0,00 %
19.06.2015 17:55 15,0 C 60 % 1015,7 hPa 0,0 l/m 4,3 km/h (1 Bft) W 263 0 min 0,000 mm 1,0 UV-I 208 W/m 7,3 C 15,0 C 7,9 km/h (2 Bft) 0,00 %
19.06.2015 18:00 15,0 C 59 % 1015,7 hPa 0,0 l/m 10,4 km/h (2 Bft) SW 232 0 min 0,000 mm 1,0 UV-I 180 W/m 7,1 C 12,9 C 15,8 km/h (3 Bft) 0,00 %
19.06.2015 18:05 15,2 C 57 % 1015,7 hPa 0,0 l/m 0,4 km/h (0 Bft) S 190 0 min 0,000 mm 1,0 UV-I 162 W/m 6,7 C 15,2 C 4,0 km/h (1 Bft) 0,00 %
19.06.2015 18:10 15,3 C 57 % 1015,8 hPa 0,0 l/m 4,3 km/h (1 Bft) S-SW 212 0 min 0,000 mm 1,0 UV-I 179 W/m 6,8 C 15,3 C 7,9 km/h (2 Bft) 0,00 %
19.06.2015 18:15 15,3 C 59 % 1015,8 hPa 0,0 l/m 0,0 km/h (0 Bft) S 174 0 min 0,000 mm 1,0 UV-I 203 W/m 7,3 C 15,3 C 0,0 km/h (0 Bft) 0,00 %
19.06.2015 18:20 15,0 C 59 % 1015,9 hPa 0,0 l/m 0,0 km/h (0 Bft) S-SO 166 0 min 0,000 mm 0,0 UV-I 202 W/m 7,1 C 15,0 C 0,0 km/h (0 Bft) 0,00 %
19.06.2015 18:25 14,5 C 61 % 1015,9 hPa 0,0 l/m 0,7 km/h (0 Bft) SW 226 5 min 0,000 mm 1,0 UV-I 232 W/m 7,1 C 14,5 C 4,0 km/h (1 Bft) 0,00 %
19.06.2015 18:30 14,2 C 62 % 1016,1 hPa 0,0 l/m 0,0 km/h (0 Bft) NW 307 5 min 0,000 mm 0,0 UV-I 214 W/m 7,0 C 14,2 C 0,0 km/h (0 Bft) 0,00 %
19.06.2015 18:35 14,1 C 62 % 1016,2 hPa 0,0 l/m 0,4 km/h (0 Bft) W-SW 255 0 min 0,000 mm 0,0 UV-I 182 W/m 6,9 C 14,1 C 4,0 km/h (1 Bft) 0,00 %
19.06.2015 18:40 14,0 C 62 % 1016,3 hPa 0,0 l/m 1,4 km/h (1 Bft) W-SW 255 0 min 0,000 mm 0,0 UV-I 184 W/m 6,8 C 14,0 C 4,0 km/h (1 Bft) 0,00 %
19.06.2015 18:45 13,8 C 62 % 1016,3 hPa 0,0 l/m 0,7 km/h (0 Bft) W-SW 250 5 min 0,000 mm 0,0 UV-I 217 W/m 6,6 C 13,8 C 4,0 km/h (1 Bft) 0,00 %
19.06.2015 18:50 13,7 C 62 % 1016,3 hPa 0,0 l/m 2,9 km/h (1 Bft) W-SW 251 5 min 0,000 mm 0,0 UV-I 288 W/m 6,6 C 13,7 C 4,0 km/h (1 Bft) 0,00 %
19.06.2015 18:55 13,7 C 62 % 1016,4 hPa 0,0 l/m 7,2 km/h (2 Bft) SW 216 5 min 0,000 mm 0,0 UV-I 248 W/m 6,6 C 13,2 C 11,9 km/h (2 Bft) 0,00 %
19.06.2015 19:00 13,6 C 63 % 1016,2 hPa 0,0 l/m 0,7 km/h (0 Bft) W-SW 251 0 min 0,000 mm 0,0 UV-I 105 W/m 6,7 C 13,6 C 4,0 km/h (1 Bft) 0,00 %
19.06.2015 19:05 13,6 C 64 % 1016,5 hPa 0,0 l/m 0,0 km/h (0 Bft) S 174 0 min 0,000 mm 0,0 UV-I 89 W/m 6,9 C 13,6 C 0,0 km/h (0 Bft) 0,00 %
19.06.2015 19:10 13,6 C 64 % 1016,4 hPa 0,0 l/m 4,7 km/h (1 Bft) W-SW 251 0 min 0,000 mm 0,0 UV-I 97 W/m 6,9 C 13,6 C 7,9 km/h (2 Bft) 0,00 %
19.06.2015 19:15 13,5 C 64 % 1016,4 hPa 0,0 l/m 0,0 km/h (0 Bft) SO 143 0 min 0,000 mm 0,0 UV-I 94 W/m 6,8 C 13,5 C 0,0 km/h (0 Bft) 0,00 %
19.06.2015 19:20 13,3 C 64 % 1016,2 hPa 0,0 l/m 0,0 km/h (0 Bft) W-NW 286 0 min 0,000 mm 0,0 UV-I 90 W/m 6,6 C 13,3 C 0,0 km/h (0 Bft) 0,00 %
19.06.2015 19:25 13,2 C 65 % 1016,5 hPa 0,0 l/m 3,2 km/h (1 Bft) W-SW 240 0 min 0,000 mm 0,0 UV-I 68 W/m 6,8 C 13,2 C 4,0 km/h (1 Bft) 0,00 %
19.06.2015 19:30 13,1 C 65 % 1016,5 hPa 0,0 l/m 0,0 km/h (0 Bft) SW 233 0 min 0,000 mm 0,0 UV-I 58 W/m 6,7 C 13,1 C 0,0 km/h (0 Bft) 0,00 %
19.06.2015 19:35 13,1 C 65 % 1016,6 hPa 0,0 l/m 0,0 km/h (0 Bft) S-SO 151 0 min 0,000 mm 0,0 UV-I 59 W/m 6,7 C 13,1 C 0,0 km/h (0 Bft) 0,00 %
19.06.2015 19:40 13,0 C 66 % 1016,5 hPa 0,0 l/m 0,0 km/h (0 Bft) S 176 0 min 0,000 mm 0,0 UV-I 57 W/m 6,8 C 13,0 C 0,0 km/h (0 Bft) 0,00 %
19.06.2015 19:45 13,0 C 66 % 1016,6 hPa 0,0 l/m 0,0 km/h (0 Bft) W-NW 285 0 min 0,000 mm 0,0 UV-I 43 W/m 6,8 C 13,0 C 0,0 km/h (0 Bft) 0,00 %
19.06.2015 19:50 12,9 C 67 % 1016,7 hPa 0,0 l/m 0,0 km/h (0 Bft) S 175 0 min 0,000 mm 0,0 UV-I 39 W/m 6,9 C 12,9 C 0,0 km/h (0 Bft) 0,00 %
19.06.2015 19:55 12,8 C 67 % 1016,8 hPa 0,0 l/m 5,4 km/h (1 Bft) W-SW 246 0 min 0,000 mm 0,0 UV-I 35 W/m 6,8 C 12,8 C 7,9 km/h (2 Bft) 0,00 %
19.06.2015 20:00 12,7 C 67 % 1016,9 hPa 0,0 l/m 0,0 km/h (0 Bft) S 172 0 min 0,000 mm 0,0 UV-I 31 W/m 6,7 C 12,7 C 0,0 km/h (0 Bft) 0,00 %
19.06.2015 20:05 12,5 C 67 % 1016,9 hPa 0,0 l/m 0,0 km/h (0 Bft) S 189 0 min 0,000 mm 0,0 UV-I 18 W/m 6,5 C 12,5 C 0,0 km/h (0 Bft) 0,00 %
19.06.2015 20:10 12,5 C 67 % 1016,9 hPa 0,0 l/m 0,0 km/h (0 Bft) S-SW 210 0 min 0,000 mm 0,0 UV-I 16 W/m 6,5 C 12,5 C 0,0 km/h (0 Bft) 0,00 %
19.06.2015 20:15 12,5 C 68 % 1017,0 hPa 0,0 l/m 0,0 km/h (0 Bft) S 173 0 min 0,000 mm 0,0 UV-I 11 W/m 6,8 C 12,5 C 0,0 km/h (0 Bft) 0,00 %
19.06.2015 20:20 12,4 C 68 % 1017,2 hPa 0,0 l/m 0,0 km/h (0 Bft) SO 135 0 min 0,000 mm 0,0 UV-I 7 W/m 6,7 C 12,4 C 0,0 km/h (0 Bft) 0,00 %
19.06.2015 20:25 12,4 C 69 % 1017,2 hPa 0,0 l/m 0,0 km/h (0 Bft) S 181 0 min 0,000 mm 0,0 UV-I 5 W/m 6,9 C 12,4 C 0,0 km/h (0 Bft) 0,00 %
19.06.2015 20:30 12,4 C 72 % 1017,4 hPa 0,0 l/m 0,0 km/h (0 Bft) S 175 0 min 0,000 mm 0,0 UV-I 3 W/m 7,5 C 12,4 C 0,0 km/h (0 Bft) 0,00 %
19.06.2015 20:35 12,3 C 72 % 1017,2 hPa 0,0 l/m 0,0 km/h (0 Bft) SO 142 0 min 0,000 mm 0,0 UV-I 1 W/m 7,4 C 12,3 C 0,0 km/h (0 Bft) 0,00 %
19.06.2015 20:40 12,2 C 73 % 1017,6 hPa 0,0 l/m 0,0 km/h (0 Bft) O-SO 116 0 min 0,000 mm 0,0 UV-I 0 W/m 7,5 C 12,2 C 0,0 km/h (0 Bft) 0,00 %
19.06.2015 20:45 12,1 C 75 % 1017,7 hPa 0,0 l/m 0,0 km/h (0 Bft) S 173 0 min 0,000 mm 0,0 UV-I 0 W/m 7,8 C 12,1 C 0,0 km/h (0 Bft) 0,00 %
19.06.2015 20:50 12,0 C 75 % 1017,6 hPa 0,0 l/m 0,0 km/h (0 Bft) SW 220 0 min 0,000 mm 0,0 UV-I 0 W/m 7,7 C 12,0 C 0,0 km/h (0 Bft) 0,00 %
19.06.2015 20:55 11,9 C 75 % 1017,6 hPa 0,0 l/m 0,0 km/h (0 Bft) S 174 0 min 0,000 mm 0,0 UV-I 0 W/m 7,6 C 11,9 C 0,0 km/h (0 Bft) 0,00 %
19.06.2015 21:00 11,9 C 74 % 1017,6 hPa 0,0 l/m 0,0 km/h (0 Bft) S-SW 209 0 min 0,000 mm 0,0 UV-I 0 W/m 7,4 C 11,9 C 0,0 km/h (0 Bft) 0,00 %
19.06.2015 21:05 11,9 C 75 % 1017,7 hPa 0,0 l/m 0,0 km/h (0 Bft) S 183 0 min 0,000 mm 0,0 UV-I 0 W/m 7,6 C 11,9 C 0,0 km/h (0 Bft) 0,00 %
19.06.2015 21:10 11,9 C 74 % 1017,5 hPa 0,0 l/m 0,0 km/h (0 Bft) O-SO 123 0 min 0,000 mm 0,0 UV-I 0 W/m 7,4 C 11,9 C 0,0 km/h (0 Bft) 0,00 %
19.06.2015 21:15 11,9 C 73 % 1017,5 hPa 0,0 l/m 0,0 km/h (0 Bft) SW 223 0 min 0,000 mm 0,0 UV-I 0 W/m 7,2 C 11,9 C 0,0 km/h (0 Bft) 0,00 %
19.06.2015 21:20 11,9 C 73 % 1017,7 hPa 0,0 l/m 0,0 km/h (0 Bft) S 182 0 min 0,000 mm 0,0 UV-I 0 W/m 7,2 C 11,9 C 0,0 km/h (0 Bft) 0,00 %
19.06.2015 21:25 12,0 C 74 % 1017,8 hPa 0,0 l/m 0,0 km/h (0 Bft) S 176 0 min 0,000 mm 0,0 UV-I 0 W/m 7,5 C 12,0 C 0,0 km/h (0 Bft) 0,00 %
19.06.2015 21:30 12,0 C 74 % 1017,6 hPa 0,0 l/m 0,0 km/h (0 Bft) S-SO 160 0 min 0,000 mm 0,0 UV-I 0 W/m 7,5 C 12,0 C 0,0 km/h (0 Bft) 0,00 %
19.06.2015 21:35 11,9 C 75 % 1017,6 hPa 0,0 l/m 0,0 km/h (0 Bft) S-SO 165 0 min 0,000 mm 0,0 UV-I 0 W/m 7,6 C 11,9 C 0,0 km/h (0 Bft) 0,00 %
19.06.2015 21:40 11,8 C 76 % 1017,7 hPa 0,0 l/m 0,0 km/h (0 Bft) SO 140 0 min 0,000 mm 0,0 UV-I 0 W/m 7,7 C 11,8 C 0,0 km/h (0 Bft) 0,00 %
19.06.2015 21:45 11,7 C 78 % 1017,7 hPa 0,0 l/m 0,0 km/h (0 Bft) S 183 0 min 0,000 mm 0,0 UV-I 0 W/m 8,0 C 11,7 C 0,0 km/h (0 Bft) 0,00 %
19.06.2015 21:50 11,6 C 79 % 1017,6 hPa 0,0 l/m 0,0 km/h (0 Bft) SO 143 0 min 0,000 mm 0,0 UV-I 0 W/m 8,1 C 11,6 C 0,0 km/h (0 Bft) 0,00 %
19.06.2015 21:55 11,6 C 79 % 1017,8 hPa 0,0 l/m 0,0 km/h (0 Bft) S 176 0 min 0,000 mm 0,0 UV-I 0 W/m 8,1 C 11,6 C 0,0 km/h (0 Bft) 0,00 %
19.06.2015 22:00 11,5 C 79 % 1017,6 hPa 0,0 l/m 0,0 km/h (0 Bft) SO 140 0 min 0,000 mm 0,0 UV-I 0 W/m 8,0 C 11,5 C 0,0 km/h (0 Bft) 0,00 %
19.06.2015 22:05 11,4 C 80 % 1017,8 hPa 0,0 l/m 0,0 km/h (0 Bft) S 172 0 min 0,000 mm 0,0 UV-I 0 W/m 8,1 C 11,4 C 0,0 km/h (0 Bft) 0,00 %
19.06.2015 22:10 11,3 C 80 % 1017,8 hPa 0,0 l/m 0,0 km/h (0 Bft) S-SO 150 0 min 0,000 mm 0,0 UV-I 0 W/m 8,0 C 11,3 C 0,0 km/h (0 Bft) 0,00 %
19.06.2015 22:15 11,3 C 82 % 1017,9 hPa 0,0 l/m 0,0 km/h (0 Bft) O-NO 77 0 min 0,000 mm 0,0 UV-I 0 W/m 8,3 C 11,3 C 0,0 km/h (0 Bft) 0,00 %
19.06.2015 22:20 11,2 C 82 % 1017,7 hPa 0,0 l/m 0,0 km/h (0 Bft) SO 127 0 min 0,000 mm 0,0 UV-I 0 W/m 8,2 C 11,2 C 0,0 km/h (0 Bft) 0,00 %
19.06.2015 22:25 11,2 C 83 % 1017,9 hPa 0,0 l/m 0,0 km/h (0 Bft) SO 140 0 min 0,000 mm 0,0 UV-I 0 W/m 8,4 C 11,2 C 0,0 km/h (0 Bft) 0,00 %
19.06.2015 22:30 11,2 C 82 % 1018,0 hPa 0,0 l/m 0,0 km/h (0 Bft) S-SW 199 0 min 0,000 mm 0,0 UV-I 0 W/m 8,2 C 11,2 C 0,0 km/h (0 Bft) 0,00 %
19.06.2015 22:35 11,2 C 81 % 1018,0 hPa 0,0 l/m 0,0 km/h (0 Bft) SW 216 0 min 0,000 mm 0,0 UV-I 0 W/m 8,1 C 11,2 C 0,0 km/h (0 Bft) 0,00 %
19.06.2015 22:40 11,2 C 81 % 1017,9 hPa 0,0 l/m 0,0 km/h (0 Bft) O-SO 103 0 min 0,000 mm 0,0 UV-I 0 W/m 8,1 C 11,2 C 0,0 km/h (0 Bft) 0,00 %
19.06.2015 22:45 11,3 C 81 % 1017,9 hPa 0,0 l/m 0,0 km/h (0 Bft) N-NW 327 0 min 0,000 mm 0,0 UV-I 0 W/m 8,2 C 11,3 C 0,0 km/h (0 Bft) 0,00 %
19.06.2015 22:50 11,3 C 81 % 1018,0 hPa 0,0 l/m 0,0 km/h (0 Bft) O-SO 120 0 min 0,000 mm 0,0 UV-I 0 W/m 8,2 C 11,3 C 0,0 km/h (0 Bft) 0,00 %
19.06.2015 22:55 11,3 C 81 % 1017,9 hPa 0,0 l/m 0,0 km/h (0 Bft) SO 131 0 min 0,000 mm 0,0 UV-I 0 W/m 8,2 C 11,3 C 0,0 km/h (0 Bft) 0,00 %
19.06.2015 23:00 11,3 C 81 % 1018,0 hPa 0,0 l/m 0,4 km/h (0 Bft) W-SW 256 0 min 0,000 mm 0,0 UV-I 0 W/m 8,2 C 11,3 C 4,0 km/h (1 Bft) 0,00 %
19.06.2015 23:05 11,3 C 81 % 1017,8 hPa 0,0 l/m 0,0 km/h (0 Bft) SO 136 0 min 0,000 mm 0,0 UV-I 0 W/m 8,2 C 11,3 C 0,0 km/h (0 Bft) 0,00 %
19.06.2015 23:10 11,2 C 82 % 1017,7 hPa 0,0 l/m 0,0 km/h (0 Bft) SW 218 0 min 0,000 mm 0,0 UV-I 0 W/m 8,2 C 11,2 C 0,0 km/h (0 Bft) 0,00 %
19.06.2015 23:15 11,2 C 81 % 1017,8 hPa 0,0 l/m 0,0 km/h (0 Bft) S-SO 168 0 min 0,000 mm 0,0 UV-I 0 W/m 8,1 C 11,2 C 0,0 km/h (0 Bft) 0,00 %
19.06.2015 23:20 11,2 C 82 % 1017,8 hPa 0,0 l/m 0,0 km/h (0 Bft) O 101 0 min 0,000 mm 0,0 UV-I 0 W/m 8,2 C 11,2 C 0,0 km/h (0 Bft) 0,00 %
19.06.2015 23:25 11,2 C 82 % 1017,8 hPa 0,0 l/m 0,0 km/h (0 Bft) S 172 0 min 0,000 mm 0,0 UV-I 0 W/m 8,2 C 11,2 C 0,0 km/h (0 Bft) 0,00 %
19.06.2015 23:30 11,2 C 81 % 1017,6 hPa 0,0 l/m 0,0 km/h (0 Bft) SO 133 0 min 0,000 mm 0,0 UV-I 0 W/m 8,1 C 11,2 C 0,0 km/h (0 Bft) 0,00 %
19.06.2015 23:35 11,2 C 82 % 1017,8 hPa 0,0 l/m 0,0 km/h (0 Bft) S-SO 164 0 min 0,000 mm 0,0 UV-I 0 W/m 8,2 C 11,2 C 0,0 km/h (0 Bft) 0,00 %
19.06.2015 23:40 11,2 C 82 % 1017,8 hPa 0,0 l/m 0,0 km/h (0 Bft) S-SO 156 0 min 0,000 mm 0,0 UV-I 0 W/m 8,2 C 11,2 C 0,0 km/h (0 Bft) 0,00 %
19.06.2015 23:45 11,2 C 82 % 1017,8 hPa 0,0 l/m 0,0 km/h (0 Bft) SW 222 0 min 0,000 mm 0,0 UV-I 0 W/m 8,2 C 11,2 C 0,0 km/h (0 Bft) 0,00 %
19.06.2015 23:50 11,2 C 82 % 1017,9 hPa 0,0 l/m 0,0 km/h (0 Bft) S 176 0 min 0,000 mm 0,0 UV-I 0 W/m 8,2 C 11,2 C 0,0 km/h (0 Bft) 0,00 %
_ Min-Zeit 22:20 14:55 01:40 - 00:00 - - - - - - 20:05 03:50 00:00 00:00
Minimum _ 11,2 C 51 % 1011,2 hPa - 0,0 km/h (0 Bft) - - - - - - 6,5 C 10,2 C 0,0 km/h (0 Bft) 0,00 %
_ Max-Zeit 15:30 02:35 22:30 01:40 13:40 - - 09:30 00:00 12:20 13:10 00:50 15:30 13:40 00:00
Maximum _ 19,2 C 98 % 1018,0 hPa 0,3 l/m 18,4 km/h
NW (3 Bft)
- - 5 min 0,000 mm 6,0 UV-I 943 W/m 13,9 C 19,2 C 28,1 km/h
NW (4 Bft)
0,00 %
Durchschnitt _ 14,8 C 76 % 1014,4 hPa #1,2 l/m 2,3 km/h (1 Bft) W-SW - #3:30 h #0,000 mm 2,0 UV-I 270 W/m 10,3 C 14,6 C 4,4 km/h (1 Bft) 0,00 %